Regional Weather Roundup
Issued by NWS

Home | Current Version | Previous Version | Graphics & Text | Print | Product List | Glossary On
Versions: 1 2 3 4 5 6 7 8 9 10 11 12 13 14 15 16 17 18 19 20 21 22 23 24 25 26 27 28 29 30 31 32 33 34 35 36 37 38 39 40 41 42 43 44 45 46 47 48 49 50
000
ASUS45 KSLC 201010
RWRUT

UTAH REGIONAL WEATHER ROUNDUP
NATIONAL WEATHER SERVICE SALT LAKE CITY UT
300 AM MST SAT JAN 20 2018

UTZ001>011-023>025-201100-

NORTHERN UTAH

CITY           SKY/WX    TMP DP  RH WIND       PRES   REMARKS
BRIGHAM CITY   CLOUDY    32  29  88 CALM      29.95S
HILL AFB       FLURRIES  29  29  99 NW7       29.91S WCI  22
LOGAN          CLOUDY    32  28  85 SE3       29.94R
OGDEN          CLOUDY    31  28  89 N7        29.92R WCI  24
SALT LAKE CITY LGT SNOW  33  31  92 NW12      29.92S VSB 1   WCI  24
TOOELE VALLEY  LGT SNOW  30  30 100 CALM      29.94S
WENDOVER       CLOUDY    28  27  96 SW8       29.95F WCI  20
HEBER CITY     LGT SNOW  30  28  93 NE8       29.83F WCI  23
WEST JORDAN    CLOUDY    29  29 100 NW13      29.91S WCI  19

$$

UTZ011>015-024>027-201100-

CENTRAL/NORTHEAST UTAH

CITY           SKY/WX    TMP DP  RH WIND       PRES   REMARKS
PROVO AIRPORT  LGT SNOW  31  29  92 NW12      29.89S FOG     WCI  22
MOAB/CANYONLAN CLOUDY    32  25  75 CALM      29.78S
DELTA          CLOUDY    30  30 100 N12       29.86F WCI  21
PRICE          PTCLDY    26  21  81 CALM      29.76F
ROOSEVELT      MOCLDY    27  21  80 CALM      29.80S
VERNAL         CLOUDY    32  22  66 W3        29.77F

$$

UTZ013>016-019>022-027-201100-

SOUTHERN UTAH

CITY           SKY/WX    TMP DP  RH WIND       PRES   REMARKS
BRYCE CANYON   CLOUDY    35  26  69 S8        29.83F WCI  29
CEDAR CITY     MIX PCPN  33  28  81 NW12      29.76S WCI  24
MILFORD        LGT SNOW  31  30  96 N14       29.83S FOG     WCI  21
ST GEORGE      CLOUDY    54  32  43 SE12      29.73F
HANKSVILLE     MOCLDY    32  19  59 CALM      29.80F
BLANDING         N/A     35  19  51 E3        29.97S

$$

REGIONAL REPORTS     COLORADO/ARIZONA

CITY           SKY/WX    TMP DP  RH WIND       PRES   REMARKS
CRAIG, CO      CLOUDY    30  23  75 SE3       29.82R
GRAND JUNCTION CLOUDY    30  22  72 E5        29.80S WCI  25
RIFLE, CO      MOCLDY    28  23  81 CALM      29.81F
MONTROSE, CO   MOCLDY    39  20  46 VRB3      29.85S
CORTEZ, CO     PTCLDY    26  20  77 NE7       29.93F WCI  18
COLORADO CITY  CLOUDY    46  30  53 E7        29.82F
PAGE, AZ       CLOUDY    53  25  33 S7        29.79F
GRAND CANYON   CLOUDY    38  22  52 S8        29.88F WCI  32
KINGMAN, AZ    CLOUDY    55  32  41 S12       29.78F
FLAGSTAFF, AZ  PTCLDY    38  18  44 SW17G29   29.89F WCI  28

$$

REGIONAL REPORTS    NEVADA/IDAHO/WYOMING

CITY           SKY/WX    TMP DP  RH WIND       PRES   REMARKS
LAS VEGAS, NV  CLOUDY    56  36  47 SW13      29.75S
ELY, NY        LGT SNOW  24  22  91 N17       29.85F VSB 3/4 WCI  11
ELKO, NV       CLOUDY    26  23  88 CALM      29.94S
POCATELLO, ID  CLOUDY    31  24  75 SW13      29.95R WCI  21
BURLEY, ID     CLOUDY    32  23  69 W12       29.95R WCI  23
EVANSTON, WY   LGT SNOW  22  20  92 N8        29.86R FOG     WCI  12
ROCK SPRINGS,  CLOUDY    25  21  85 W7        29.84S WCI  17

$$



USA.gov is the U.S. government's official web portal to all federal, state and local government web resources and services.